Overview Statistics Trail Chart Weather Telemetry Raw packets
 

This is the latest recevied weather packets stored in our database for station/object IK8SUT-10. If no packets are shown the sender has not sent any weather packets the latest 10 day(s).

<< 31 32 33 34 35 36 37 >>
Time Temp. Humidity Pressure Rain* Wind** Luminosity Snow
1787872402 31.67° C 55% 1020.5 hPa - - - -
1787871501 31.67° C 56% 1020.7 hPa - - - -
1787870600 31.67° C 57% 1020.7 hPa - - - -
1787869699 31.67° C 57% 1020.7 hPa - - - -
1787868798 31.67° C 58% 1020.8 hPa - - - -
1787867897 32.22° C 58% 1020.9 hPa - - - -
1787866997 32.22° C 58% 1020.8 hPa - - - -
1787866096 32.22° C 59% 1021 hPa - - - -
1787865195 32.22° C 57% 1021 hPa - - - -
1787864294 32.22° C 59% 1021.1 hPa - - - -
1787863394 32.78° C 60% 1021.1 hPa - - - -
1787862512 32.22° C 58% 1021 hPa - - - -
1787861612 32.22° C 57% 1020.9 hPa - - - -
1787860710 32.22° C 57% 1020.9 hPa - - - -
1787859810 32.22° C 58% 1020.9 hPa - - - -
1787858909 32.22° C 57% 1021 hPa - - - -
1787858008 32.22° C 56% 1020.7 hPa - - - -
1787857107 32.78° C 55% 1020.5 hPa - - - -
1787856206 32.78° C 55% 1020.5 hPa - - - -
1787855306 32.78° C 54% 1020.5 hPa - - - -
1787854405 32.78° C 58% 1020.5 hPa - - - -
1787853504 32.78° C 62% 1020.4 hPa - - - -
1787852603 32.78° C 63% 1020.3 hPa - - - -
1787851702 32.78° C 63% 1020.2 hPa - - - -
1787850802 32.78° C 60% 1020.1 hPa - - - -

* Rain since midnight (hover to see other rain measurements)
** Current wind speed in m/s (hover to see current wind gust speed)